Torna al catalogo

SNAPPY

AttivoComunicazioniSSO
NORAD 69014·PAYLOAD·🇺🇸 United States

Lanciato May 3, 2026 da Vandenberg Space Force Base

Loading…

Prossimi Passaggi (prossime 24 ore)

TLE

AggiornatoSource: Space-Track

Epoca: Sep 13, 2026, 15:48 UTC

1 69014U 26100AL  26256.65871208  .00003220  00000-0  14502-3 0  9999
2 69014  97.3936 153.0640 0007743 102.8565 257.3537 15.21751481 20263

Traccia SNAPPY in tempo reale con AllMySat

Download on the App Store